Temp_Advection
nan nan nan nan nan nan nan nan nan nan nan nan nan nan nan nan nan nan nan nan nan nan nan nan nan nan nan nan nan nan nan nan nan nan nan nan nan nan nan nan nan nan nan
nan 0 -0 -0 -0 -0 -0 -1 -1 -0 1 2 1 0 -2 -1 1 1 1 1 1 0 0 0 0 0 0 0 0 -0 -0 -0 -0 -0 -0 -0 0 -0 -0 -0 0 0 nan
nan -0 0 0 -0 0 -1 -1 -0 0 1 1 -0 -2 -1 1 2 1 1 1 1 1 0 0 -0 0 0 0 0 -0 -0 -0 -0 -0 -0 -0 0 0 -0 -0 -0 -0 nan
nan -0 -0 -0 0 -0 -1 -0 0 1 1 0 -1 1 2 2 1 1 1 1 1 0 0 0 0 0 0 0 0 -0 -0 -0 -0 -0 -0 -0 -0 -0 -0 0 0 -0 nan
nan 0 0 0 0 0 -1 0 1 1 0 1 1 2 2 0 0 1 1 1 0 0 0 0 0 0 0 0 0 -0 -0 -0 -0 -0 -0 -0 0 0 -0 -1 -0 0 nan
nan 0 0 0 1 0 -1 -0 1 1 1 1 2 1 -0 -0 0 0 0 -0 -0 0 0 0 0 0 0 0 0 -0 -0 -0 -0 -0 -0 0 0 0 0 -0 -0 -0 nan
nan 0 0 0 0 -1 -1 0 1 1 1 1 2 1 0 1 0 0 -0 -0 0 0 0 0 0 0 0 0 0 -0 -0 -0 -0 0 -0 0 0 1 0 -0 -1 -0 nan
nan 0 0 0 0 -1 -0 0 1 1 1 1 1 0 0 1 1 1 1 1 1 0 0 0 0 0 0 0 -0 -0 -0 -0 -0 -0 0 0 0 1 1 0 -1 -2 nan
nan -0 0 0 0 0 0 1 2 1 1 1 1 0 0 1 1 2 1 1 1 0 0 0 0 0 0 0 -0 -0 -0 -0 -0 -0 -0 0 0 0 0 0 0 -1 nan
nan -0 0 0 1 1 2 2 2 1 1 1 0 0 1 2 2 1 1 1 0 0 0 0 0 0 0 0 -0 -0 0 0 -0 0 0 0 0 0 1 0 0 -0 nan
nan -1 -0 1 1 1 2 1 1 1 1 0 0 1 2 2 1 1 1 0 0 0 0 0 0 0 0 -0 -0 -0 -0 0 0 0 0 0 0 1 1 0 0 -0 nan
nan -1 0 1 1 1 1 1 1 0 0 0 1 1 1 1 1 0 0 0 0 0 0 0 0 0 -0 -0 -0 -0 -0 0 0 0 0 0 0 0 1 0 0 -0 nan
nan -0 0 1 1 1 1 1 0 0 0 1 1 1 1 0 0 0 0 0 0 0 0 0 0 0 -0 -0 -0 0 -0 -0 0 0 0 0 1 0 0 0 -0 -0 nan
nan 0 0 0 1 1 0 0 0 1 1 1 1 1 0 -0 0 0 0 1 0 0 0 0 0 0 -0 -0 -0 -0 -0 -0 -0 0 0 0 0 0 -0 -0 -0 -0 nan
nan 0 0 0 1 1 0 0 1 1 1 1 1 0 0 0 1 1 1 0 0 0 0 0 0 0 -0 0 0 0 0 0 -0 -0 0 0 -0 0 0 -0 -0 -0 nan
nan 0 0 0 1 0 -0 1 1 1 1 1 1 1 1 1 1 1 0 0 0 0 0 0 -0 -0 0 0 0 0 0 0 0 0 0 0 0 0 0 -0 -0 -0 nan
nan 0 0 0 0 0 1 1 1 1 1 1 1 1 1 1 1 0 0 0 0 0 0 -0 -0 0 -0 -0 0 0 1 1 0 0 0 0 0 0 0 0 -0 -0 nan
nan -0 -0 -0 -0 1 1 1 0 1 1 0 1 1 1 0 0 0 0 0 0 0 -0 -0 0 -0 -0 -0 0 0 0 1 0 0 0 0 0 0 0 0 0 -0 nan
nan -0 -1 -1 -0 1 0 0 -0 0 0 0 0 0 0 0 0 0 0 0 0 0 0 -0 -0 -0 -0 -0 0 0 0 0 0 0 0 0 0 -0 -0 -0 -0 -0 nan
nan -0 -1 -0 -1 -0 0 0 0 0 0 0 0 0 0 0 0 0 0 0 0 0 -0 -0 -0 -0 -0 -0 -0 0 0 0 -0 -0 0 0 0 0 -0 -0 -0 -0 nan
nan -1 -0 -0 -0 -0 0 0 0 0 0 0 0 0 0 0 0 0 0 0 -0 -0 -0 -0 -0 -0 -0 -0 -0 0 0 -0 -0 -0 -0 0 0 -0 -0 -0 -0 -0 nan
nan 1 0 0 1 1 0 -0 0 0 0 0 0 0 0 0 0 0 0 -0 -0 -0 -0 -0 -0 -0 -0 -0 -0 -0 0 0 -0 -0 -0 -0 -0 0 0 0 0 -0 nan
nan 1 1 0 1 1 1 -0 -0 0 0 0 0 0 0 0 0 0 0 -0 -0 -0 -0 -1 -1 -1 -0 -0 -1 -0 -0 -0 -0 -0 -0 -0 0 -1 -1 0 -0 0 nan
nan 0 0 -0 -0 0 1 1 0 0 0 0 0 0 0 0 0 -0 -0 -0 -0 -0 -0 -0 -0 -1 -1 -0 -0 -1 -0 -0 -0 -0 -0 0 0 -0 -1 -0 -0 -0 nan
nan 1 1 0 0 0 0 1 0 0 0 0 0 0 0 0 -0 -0 -0 -0 -0 -0 0 0 0 1 0 0 -0 -0 -0 -0 -0 -0 -0 -0 -0 -0 -0 -0 -0 0 nan
nan nan nan nan nan nan nan nan nan nan nan nan nan nan nan nan nan nan nan nan nan nan nan nan nan nan nan nan nan nan nan nan nan nan nan nan nan nan nan nan nan nan nan
Wind_Speed
29 27 25 23 23 27 31 27 28 26 26 26 25 27 29 36 32 29 26 24 24 22 19 13 10 10 8 5 6 9 11 13 14 13 12 9 7 11 10 10 12 18 20
35 34 30 29 26 24 27 30 29 28 27 26 26 24 33 37 34 31 28 27 26 22 20 14 13 11 8 6 6 8 11 13 14 13 9 5 5 4 5 18 12 14 15
35 34 35 33 30 27 26 28 28 29 27 26 26 34 38 39 35 32 30 31 28 23 18 16 13 11 8 6 6 8 9 12 13 12 5 5 3 13 9 11 14 11 20
28 32 33 33 33 30 32 30 29 28 28 29 28 32 37 41 34 33 33 31 27 23 18 15 14 11 8 7 7 8 9 10 11 13 11 8 9 6 10 8 12 16 19
22 27 28 31 29 29 35 32 31 30 30 27 27 29 32 37 36 35 34 30 25 18 19 16 14 10 7 7 7 9 10 11 11 11 12 12 11 9 9 19 15 20 20
15 20 22 22 26 26 33 34 33 32 30 28 27 30 35 39 36 35 34 29 24 23 20 17 13 9 7 7 8 9 11 12 12 13 13 11 8 9 12 18 22 25 23
18 19 18 20 22 26 32 33 33 33 31 28 28 32 33 36 31 35 34 30 25 23 20 17 12 8 7 7 8 10 11 12 13 14 13 14 14 15 15 17 23 25 26
17 19 18 16 21 27 32 33 35 33 31 30 30 31 31 35 32 35 32 29 25 21 19 15 10 7 6 7 8 10 11 13 14 14 16 16 17 16 17 18 21 29 24
17 16 17 16 18 22 31 35 35 34 32 31 31 30 32 34 38 34 30 28 24 21 17 12 8 6 6 7 9 10 12 13 14 16 17 18 17 18 18 19 18 22 32
19 17 14 15 17 21 28 31 32 32 32 31 31 31 32 33 35 31 29 25 22 18 14 10 7 5 6 7 9 11 12 14 16 17 18 18 18 20 20 19 19 20 26
20 19 12 12 15 19 25 30 31 32 31 32 32 32 32 33 31 30 28 25 20 15 11 8 5 5 7 9 10 12 14 16 18 18 19 21 21 21 20 19 20 22 23
17 15 7 12 16 21 24 28 31 31 33 34 33 32 32 31 32 29 27 22 17 13 9 6 5 6 8 10 11 13 16 17 18 19 20 21 21 23 21 19 20 22 23
12 7 5 12 17 21 24 28 31 33 34 33 33 33 34 32 30 27 23 19 14 10 7 5 5 7 9 11 13 15 17 18 19 20 22 22 22 22 19 20 22 23 25
7 3 7 12 17 21 26 31 33 34 35 34 34 35 34 31 28 24 20 16 12 8 5 4 5 7 10 12 15 17 18 19 20 22 22 23 22 20 20 22 23 25 27
4 5 9 14 20 25 31 34 35 35 35 35 36 35 33 29 24 21 17 13 10 6 3 4 6 8 11 14 17 17 18 19 20 21 21 21 22 25 23 22 23 26 30
6 8 12 17 21 29 35 37 37 36 35 36 34 32 29 26 22 18 14 10 7 4 3 5 7 10 13 16 19 20 20 20 20 20 20 20 21 20 22 23 24 26 29
9 12 15 19 25 33 37 38 37 36 34 33 31 29 26 23 19 15 11 8 5 3 4 7 10 13 16 18 20 21 22 20 20 20 20 20 20 21 23 24 26 27 28
13 15 18 25 30 34 37 36 36 35 33 32 29 25 22 19 15 12 9 6 3 3 5 8 12 15 18 20 21 22 21 19 18 19 20 21 21 21 23 28 32 30 29
15 18 23 29 32 35 36 37 36 34 31 28 25 21 18 14 12 9 7 4 3 5 8 11 14 17 19 21 22 23 19 17 18 19 20 20 22 22 26 29 33 31 29
19 23 26 27 30 32 34 34 33 30 27 24 21 18 15 11 10 7 4 3 4 7 10 14 17 18 19 21 22 23 19 17 18 20 21 21 22 26 26 29 30 33 29
22 26 26 28 30 32 32 32 31 27 24 21 18 16 13 10 7 5 3 3 6 10 13 15 17 19 21 21 22 22 18 16 20 22 23 22 24 26 29 28 28 26 28
25 26 29 30 30 29 29 29 27 24 21 18 16 13 11 9 6 3 3 6 9 12 15 17 18 18 20 22 22 21 19 18 20 23 23 25 27 30 29 27 24 24 25
25 26 29 30 29 28 26 26 25 22 19 16 15 13 9 6 3 2 5 8 12 14 16 17 18 19 20 19 21 21 19 20 23 22 25 28 28 28 27 23 22 20 18
25 27 29 30 29 26 23 21 22 19 17 15 13 10 6 3 1 4 8 11 13 15 16 16 17 18 19 17 17 19 21 21 23 25 29 27 26 22 22 20 18 17 18
26 27 29 30 29 26 23 21 20 17 15 12 9 7 4 1 4 8 10 12 14 16 17 17 19 19 18 17 20 22 23 23 24 28 24 21 19 19 18 18 19 20 20
28 29 30 31 30 26 24 21 18 14 10 9 7 4 0 4 7 9 11 12 14 17 18 19 20 21 21 20 21 20 22 22 24 21 18 17 18 19 19 20 22 24 26
Wind_Direction
256 253 248 243 240 238 240 237 237 247 249 234 209 201 198 210 207 206 208 212 211 209 207 211 221 219 222 249 292 312 320 330 337 342 334 316 296 295 267 272 277 299 299
251 250 246 241 236 232 235 235 241 246 246 229 214 206 207 211 212 205 207 205 207 210 210 215 204 212 223 252 292 313 325 335 342 348 347 310 287 305 275 294 296 284 295
248 243 240 236 233 232 229 232 235 239 234 221 204 214 214 213 207 201 201 198 201 205 206 210 202 213 228 262 294 316 332 337 337 344 353 316 295 304 286 287 293 291 295
250 246 240 237 231 228 228 229 233 232 223 219 222 225 219 209 203 198 194 195 200 201 190 202 208 217 238 271 300 320 330 337 333 334 334 322 298 307 305 291 305 290 308
254 249 241 236 232 226 228 227 229 222 219 218 219 214 211 203 202 193 191 193 193 192 199 205 211 221 247 279 305 321 330 332 329 326 326 323 315 298 284 300 301 302 307
266 257 249 237 231 225 225 225 224 218 215 212 212 206 210 209 201 193 191 190 189 196 194 206 211 227 256 287 308 321 326 327 325 323 322 319 307 296 289 292 298 303 310
283 268 254 231 222 216 219 218 216 212 209 206 202 204 211 211 207 195 193 193 194 194 199 204 211 232 264 292 311 320 325 323 322 321 316 314 308 298 296 296 299 299 304
293 271 256 239 222 217 215 214 209 207 203 199 197 203 205 203 202 193 192 195 192 194 195 202 215 238 269 295 314 320 319 318 317 316 314 310 306 301 299 297 301 305 303
318 311 260 240 220 209 207 209 204 202 198 193 195 197 201 202 194 192 190 189 189 192 195 203 220 245 277 304 315 316 316 316 315 312 310 309 305 302 299 297 295 297 301
323 317 270 236 215 204 199 195 196 194 190 187 189 193 196 195 190 186 186 188 186 190 196 207 225 258 290 307 313 315 315 315 313 310 307 307 305 304 302 298 294 290 290
323 317 280 220 197 187 185 188 187 186 183 183 185 187 187 184 185 184 182 182 186 189 198 209 236 273 299 312 316 315 315 312 309 309 308 307 306 305 301 297 294 291 290
314 317 263 194 180 176 176 178 179 179 181 180 179 180 181 181 179 177 179 180 185 190 198 217 250 289 308 315 314 314 311 310 310 308 307 307 305 305 303 299 296 294 293
318 314 211 183 174 169 167 170 174 178 175 175 177 175 174 170 173 176 178 181 185 190 202 229 278 305 312 313 313 311 312 311 309 308 307 306 306 305 301 300 299 298 296
296 245 186 172 166 162 161 168 171 175 173 173 172 169 168 171 173 176 179 181 184 192 210 258 298 308 312 313 313 314 313 311 309 307 306 305 304 300 302 301 299 298 295
246 185 174 162 158 156 162 166 169 169 170 169 166 166 165 170 174 177 179 181 185 197 233 286 304 312 313 313 315 316 313 308 305 305 304 303 298 301 302 298 299 298 296
212 168 166 159 157 161 163 166 165 166 166 165 166 165 167 169 173 176 177 180 188 209 267 301 311 314 313 314 316 317 312 306 305 304 303 302 302 301 300 299 297 296 299
183 163 161 159 160 165 165 162 161 160 160 164 165 164 166 169 171 173 176 181 193 239 294 310 312 313 315 317 318 316 314 305 304 304 305 305 303 304 304 302 304 299 297
158 152 157 160 163 160 159 157 156 158 162 164 163 163 166 167 168 171 176 186 218 282 305 309 313 316 317 318 316 317 317 308 304 304 304 303 306 306 306 307 304 303 305
143 146 159 157 151 154 154 155 156 159 161 161 162 162 164 165 167 171 184 205 265 296 308 314 318 319 317 319 320 321 317 307 305 306 309 306 306 305 311 308 310 307 303
134 141 148 145 147 149 154 155 155 158 160 159 159 159 159 163 171 182 194 238 284 306 315 319 319 318 320 321 324 325 317 311 310 312 309 307 306 309 310 311 309 306 306
137 144 147 148 151 153 157 156 155 156 157 157 158 159 161 168 174 191 219 278 307 316 318 320 321 320 320 323 324 323 321 313 312 311 311 309 309 311 308 308 305 301 306
143 153 154 152 153 156 158 154 155 154 156 156 156 156 164 173 180 201 277 309 316 319 323 324 323 324 324 323 325 325 318 315 313 311 307 307 310 307 310 311 308 309 305
145 152 153 149 150 156 165 158 152 155 153 153 159 162 162 170 189 274 311 317 324 326 324 326 326 324 323 324 323 327 328 320 314 308 310 309 308 311 316 315 315 314 312
144 150 150 148 148 155 158 157 148 149 153 156 156 158 163 172 255 307 323 329 326 328 329 327 323 322 323 324 324 324 320 317 313 312 311 308 310 315 316 320 318 314 312
141 148 149 147 145 150 150 148 146 150 153 155 154 154 159 233 319 329 328 327 327 331 329 323 321 320 317 315 318 317 317 314 314 310 311 311 315 315 318 317 319 322 321
143 145 145 144 142 146 144 143 143 146 152 151 148 152 193 328 326 325 328 330 329 330 327 325 322 319 316 315 316 319 314 314 311 314 311 314 314 316 319 320 323 329 330
Height
1452 1453 1453 1455 1456 1458 1461 1464 1466 1468 1470 1471 1474 1477 1479 1479 1483 1488 1492 1496 1499 1501 1504 1506 1507 1508 1509 1509 1509 1508 1508 1506 1503 1502 1500 1497 1495 1493 1492 1492 1491 1489 1487
1441 1443 1444 1446 1448 1450 1453 1456 1459 1461 1463 1466 1468 1471 1472 1474 1477 1482 1487 1491 1495 1499 1501 1503 1504 1506 1507 1507 1506 1506 1505 1503 1501 1500 1499 1499 1497 1493 1491 1490 1487 1486 1483
1430 1431 1433 1435 1439 1440 1444 1449 1452 1454 1456 1458 1463 1463 1464 1469 1472 1477 1483 1487 1492 1495 1498 1500 1502 1503 1504 1504 1504 1503 1502 1500 1499 1499 1500 1498 1495 1491 1488 1486 1484 1483 1480
1422 1422 1423 1426 1429 1432 1436 1440 1444 1446 1449 1451 1455 1459 1461 1463 1470 1475 1479 1484 1488 1491 1494 1498 1500 1501 1502 1502 1501 1500 1499 1498 1498 1496 1496 1494 1492 1492 1486 1483 1481 1479 1475
1414 1414 1413 1416 1420 1424 1427 1432 1436 1439 1441 1446 1449 1454 1459 1462 1466 1471 1477 1481 1485 1489 1493 1496 1498 1499 1499 1499 1498 1497 1497 1496 1496 1495 1492 1489 1488 1487 1486 1479 1477 1474 1472
1407 1407 1406 1407 1410 1415 1418 1423 1428 1432 1436 1439 1443 1448 1452 1456 1461 1468 1473 1478 1482 1486 1490 1493 1495 1496 1496 1496 1495 1494 1494 1493 1493 1491 1489 1487 1486 1485 1483 1478 1472 1468 1465
1402 1401 1400 1399 1401 1406 1409 1416 1421 1425 1430 1434 1439 1442 1448 1455 1459 1464 1470 1475 1480 1484 1487 1490 1492 1493 1493 1494 1493 1492 1491 1491 1489 1487 1485 1483 1481 1479 1476 1473 1467 1462 1460
1395 1394 1394 1392 1394 1397 1403 1409 1415 1421 1425 1429 1434 1439 1446 1452 1457 1462 1468 1473 1479 1482 1485 1488 1489 1490 1490 1491 1490 1489 1488 1487 1485 1484 1481 1479 1477 1474 1471 1468 1464 1455 1452
1390 1387 1387 1386 1388 1391 1396 1403 1410 1416 1420 1425 1430 1436 1443 1449 1454 1461 1466 1471 1476 1480 1484 1486 1487 1488 1488 1488 1487 1486 1485 1484 1482 1480 1477 1475 1472 1469 1466 1463 1460 1456 1445
1385 1381 1380 1380 1383 1387 1392 1399 1406 1412 1416 1421 1427 1434 1441 1448 1454 1460 1465 1471 1475 1479 1482 1483 1485 1486 1486 1485 1484 1483 1482 1480 1478 1476 1473 1470 1467 1464 1461 1458 1455 1451 1446
1382 1378 1376 1377 1379 1384 1389 1395 1402 1408 1414 1419 1425 1433 1440 1448 1453 1459 1464 1469 1474 1477 1479 1481 1483 1484 1484 1482 1481 1480 1478 1476 1474 1471 1468 1465 1461 1458 1455 1452 1448 1445 1441
1379 1375 1373 1374 1377 1381 1387 1392 1399 1407 1412 1418 1424 1432 1441 1447 1453 1458 1464 1468 1472 1475 1478 1480 1481 1481 1480 1479 1478 1476 1475 1472 1469 1466 1463 1459 1456 1452 1449 1446 1443 1439 1435
1375 1372 1372 1373 1377 1381 1386 1392 1398 1405 1412 1419 1424 1431 1439 1447 1454 1459 1464 1467 1470 1473 1476 1477 1478 1478 1477 1476 1474 1473 1470 1467 1464 1461 1457 1454 1450 1447 1444 1441 1437 1433 1429
1372 1372 1373 1375 1377 1382 1386 1390 1398 1407 1413 1419 1426 1432 1439 1448 1454 1460 1463 1466 1469 1472 1474 1475 1475 1474 1474 1472 1471 1468 1465 1462 1459 1456 1452 1448 1445 1442 1439 1435 1432 1428 1423
1370 1371 1374 1376 1378 1380 1384 1391 1400 1408 1415 1421 1428 1435 1440 1448 1455 1459 1463 1466 1468 1470 1471 1472 1472 1471 1470 1469 1466 1463 1460 1457 1454 1451 1447 1443 1439 1435 1432 1429 1426 1422 1416
1369 1370 1374 1377 1380 1380 1385 1393 1402 1410 1417 1425 1432 1437 1443 1449 1455 1460 1463 1466 1467 1468 1469 1469 1468 1467 1466 1464 1461 1458 1456 1453 1449 1445 1442 1438 1434 1430 1427 1424 1420 1416 1410
1367 1370 1374 1378 1380 1383 1390 1397 1405 1414 1422 1429 1435 1439 1445 1450 1455 1460 1463 1465 1466 1466 1466 1466 1465 1464 1462 1460 1457 1454 1451 1447 1444 1440 1437 1433 1430 1425 1421 1417 1413 1409 1405
1367 1371 1375 1379 1382 1388 1395 1401 1410 1418 1425 1432 1437 1442 1447 1452 1456 1460 1463 1464 1464 1464 1464 1463 1462 1460 1458 1455 1452 1449 1445 1442 1439 1435 1431 1428 1424 1420 1416 1411 1405 1400 1396
1368 1373 1377 1383 1388 1394 1400 1407 1415 1422 1429 1435 1439 1444 1449 1453 1457 1460 1462 1462 1462 1462 1461 1460 1458 1456 1454 1450 1447 1443 1440 1437 1434 1430 1426 1422 1418 1414 1411 1404 1397 1393 1388
1373 1377 1383 1389 1394 1400 1406 1413 1420 1426 1432 1437 1442 1447 1451 1454 1457 1460 1461 1460 1460 1459 1458 1456 1454 1451 1449 1445 1442 1438 1435 1432 1429 1425 1421 1417 1412 1408 1404 1399 1392 1385 1380
1378 1384 1390 1394 1400 1406 1412 1418 1424 1429 1434 1439 1444 1448 1452 1455 1457 1459 1459 1458 1457 1456 1455 1453 1450 1447 1443 1440 1437 1433 1429 1427 1423 1419 1415 1411 1407 1402 1397 1392 1386 1380 1375
1383 1389 1393 1399 1405 1411 1417 1422 1427 1432 1437 1442 1446 1450 1453 1456 1457 1457 1457 1456 1455 1454 1451 1449 1446 1443 1439 1435 1431 1428 1425 1422 1419 1414 1410 1405 1401 1395 1389 1383 1378 1374 1369
1389 1395 1399 1404 1410 1416 1422 1425 1430 1436 1440 1445 1448 1451 1453 1455 1456 1456 1455 1454 1452 1450 1448 1445 1442 1439 1435 1431 1427 1424 1421 1419 1414 1410 1405 1399 1393 1387 1381 1376 1371 1367 1363
1395 1400 1404 1408 1413 1420 1426 1431 1435 1440 1444 1447 1449 1451 1453 1454 1454 1454 1453 1452 1450 1447 1444 1441 1438 1435 1431 1428 1425 1421 1417 1414 1409 1404 1398 1393 1387 1381 1376 1371 1368 1364 1359
1399 1404 1409 1413 1419 1426 1431 1436 1439 1443 1446 1448 1450 1451 1453 1453 1453 1452 1451 1449 1446 1443 1440 1437 1434 1430 1427 1424 1420 1417 1413 1409 1404 1398 1392 1387 1382 1377 1373 1368 1364 1359 1355
1404 1409 1414 1419 1424 1430 1434 1438 1442 1445 1447 1448 1450 1452 1452 1452 1452 1450 1448 1446 1443 1440 1437 1433 1430 1426 1423 1419 1415 1412 1408 1403 1398 1392 1387 1383 1379 1374 1369 1365 1359 1355 1350